Location: Peebles
(55.6412°N, 3.1714°W)
Time: 15:32:20
(UTC+01:00)

Meteor 1-24 Rocket - Pass Details

Date: 26 September 2021
Orbit: 790 x 927 km, 81.2° (Epoch: 17 October)

Event Time Altitude Azimuth Distance (km) Brightness Sun altitude
Rises 20:07:18 0° 347° (NNW) 3,307 7.1 -10.2°
Reaches altitude 10° 20:09:48 10° 355° (N) 2,379 6.3 -10.5°
Maximum altitude 20:14:53 42° 66° (ENE) 1,140 4.0 -11.2°
Enters shadow 20:19:49 11° 136° (SE) 2,341 5.5 -11.9°
